Project,Study,Ord_Occ,Event_Num,Date_Time_UTC,Date_Time_PST,Lat_Dec,Lon_Dec,Sta_ID,Line,Sta,Depth,Pressure,Temp0,Temp1,Salt0,CorrSalt0,Salt1,CorrSalt1,O2ml/L,AveCorrO2ml/L,StaCorrO2ml/L,FluorV,AveEstChl,StaEstChl,ISUSV,AveEstNO3,StaEstNO3,SigThetaTS0,SigThetaTS1,BAT,XMiss,SPAR,PAR,BTL_Depth,BTL_Temp,BTL_Salt,BTL_O2ml/L,BTL_Chl,BTL_Pha,BTL_NO3
CalCOFI,0701JD,075,,31-Jan-2007 5:15:56 PM,31-Jan-2007 9:15:56 AM,36.79632,-121.84634,067.1 047.7,067.1,047.7,201.000,202.593,8.6096,8.6110,33.9958,33.9945,33.9918,33.9919,1.84176,2.21,,0.0346,,,1.3732,29.82,27.719,26.3962,26.3928,0.6977,83.9940,3.1820e+00,9.9990e+03,201,8.59 ,33.997, 2.16,.03,.05,28.5
CalCOFI,0701JD,075,,31-Jan-2007 5:15:57 PM,31-Jan-2007 9:15:57 AM,36.79632,-121.84634,067.1 047.7,067.1,047.7,200.000,201.585,8.6238,8.6253,33.9935,33.9922,33.9897,33.9898,1.84553,2.22,,0.0345,0.06,0.06,1.3773,29.94,27.840,26.3922,26.3890,0.7008,83.9281,3.1986e+00,9.9990e+03,,,,,,,
CalCOFI,0701JD,075,,31-Jan-2007 5:16:31 PM,31-Jan-2007 9:16:31 AM,36.79632,-121.84623,067.1 047.7,067.1,047.7,199.000,200.576,8.6397,8.6351,33.9909,33.9896,33.9890,33.9891,1.85182,2.22,,0.0358,0.06,0.06,1.4031,30.70,28.604,26.3877,26.3869,0.6947,84.0578,3.2741e+00,9.9990e+03,,,,,,,
CalCOFI,0701JD,075,,31-Jan-2007 5:16:47 PM,31-Jan-2007 9:16:47 AM,36.79632,-121.84618,067.1 047.7,067.1,047.7,198.000,199.568,8.6405,8.6385,33.9912,33.9899,33.9881,33.9882,1.86090,2.23,,0.0367,0.07,0.06,1.3812,30.05,27.955,26.3878,26.3856,0.6837,84.2886,3.5132e+00,9.9990e+03,,,,,,,
CalCOFI,0701JD,075,,31-Jan-2007 5:16:48 PM,31-Jan-2007 9:16:48 AM,36.79632,-121.84618,067.1 047.7,067.1,047.7,197.000,198.559,8.6532,8.6537,33.9892,33.9879,33.9860,33.9861,1.87106,2.25,,0.0361,0.06,0.06,1.3959,30.48,28.391,26.3842,26.3816,0.6814,84.3374,2.7970e+00,9.9990e+03,,,,,,,
CalCOFI,0701JD,075,,31-Jan-2007 5:16:50 PM,31-Jan-2007 9:16:50 AM,36.79632,-121.84618,067.1 047.7,067.1,047.7,196.000,197.551,8.6786,8.6797,33.9861,33.9848,33.9821,33.9822,1.88330,2.26,,0.0373,0.07,0.06,1.3926,30.39,28.293,26.3778,26.3745,0.6887,84.1845,3.3989e+00,9.9990e+03,,,,,,,
CalCOFI,0701JD,075,,31-Jan-2007 5:16:51 PM,31-Jan-2007 9:16:51 AM,36.79632,-121.84618,067.1 047.7,067.1,047.7,195.000,196.543,8.7029,8.7079,33.9823,33.9810,33.9785,33.9786,1.89095,2.27,,0.0363,0.06,0.06,1.3807,30.04,27.941,26.3711,26.3673,0.6882,84.1945,3.0957e+00,9.9990e+03,,,,,,,
CalCOFI,0701JD,075,,31-Jan-2007 5:16:52 PM,31-Jan-2007 9:16:52 AM,36.79632,-121.84618,067.1 047.7,067.1,047.7,194.000,195.534,8.7137,8.7143,33.9810,33.9797,33.9779,33.9780,1.89791,2.28,,0.0365,0.06,0.06,1.4022,30.67,28.577,26.3684,26.3659,0.6885,84.1874,3.4041e+00,9.9990e+03,,,,,,,
CalCOFI,0701JD,075,,31-Jan-2007 5:16:53 PM,31-Jan-2007 9:16:53 AM,36.79632,-121.84618,067.1 047.7,067.1,047.7,193.000,194.526,8.7043,8.7090,33.9814,33.9801,33.9787,33.9788,1.90823,2.29,,0.0369,0.07,0.06,1.3654,29.59,27.488,26.3701,26.3673,0.6934,84.0840,2.8374e+00,9.9990e+03,,,,,,,
CalCOFI,0701JD,075,,31-Jan-2007 5:16:54 PM,31-Jan-2007 9:16:54 AM,36.79632,-121.84618,067.1 047.7,067.1,047.7,192.000,193.517,8.7145,8.7217,33.9820,33.9807,33.9770,33.9771,1.91909,2.31,,0.0365,0.06,0.06,1.3687,29.69,27.585,26.3690,26.3640,0.7024,83.8959,3.2671e+00,9.9990e+03,,,,,,,
CalCOFI,0701JD,075,,31-Jan-2007 5:16:55 PM,31-Jan-2007 9:16:55 AM,36.79632,-121.84618,067.1 047.7,067.1,047.7,191.000,192.509,8.7518,8.7607,33.9752,33.9739,33.9706,33.9707,1.92719,2.32,,0.0368,0.07,0.06,1.3966,30.50,28.412,26.3579,26.3529,0.7022,83.8985,3.5210e+00,9.9990e+03,,,,,,,
CalCOFI,0701JD,075,,31-Jan-2007 5:16:55 PM,31-Jan-2007 9:16:55 AM,36.79632,-121.84618,067.1 047.7,067.1,047.7,190.000,191.501,8.7597,8.7495,33.9749,33.9736,33.9729,33.9730,1.93591,2.33,,0.0363,0.06,0.06,1.3885,30.27,28.172,26.3564,26.3564,0.6995,83.9570,3.3873e+00,9.9990e+03,,,,,,,
CalCOFI,0701JD,075,,31-Jan-2007 5:16:56 PM,31-Jan-2007 9:16:56 AM,36.79632,-121.84618,067.1 047.7,067.1,047.7,189.000,190.492,8.7922,8.7918,33.9693,33.9680,33.9665,33.9666,1.94506,2.34,,0.0365,0.06,0.06,1.3877,30.24,28.148,26.3469,26.3448,0.7043,83.8551,2.8909e+00,9.9990e+03,,,,,,,
CalCOFI,0701JD,075,,31-Jan-2007 5:16:57 PM,31-Jan-2007 9:16:57 AM,36.79632,-121.84618,067.1 047.7,067.1,047.7,188.000,189.484,8.7853,8.7917,33.9709,33.9696,33.9672,33.9673,1.95839,2.35,,0.0371,0.07,0.06,1.3826,30.09,27.997,26.3492,26.3453,0.7138,83.6570,3.0501e+00,9.9990e+03,,,,,,,
CalCOFI,0701JD,075,,31-Jan-2007 5:16:58 PM,31-Jan-2007 9:16:58 AM,36.79632,-121.84618,067.1 047.7,067.1,047.7,187.000,188.476,8.8233,8.8267,33.9658,33.9645,33.9613,33.9614,1.97298,2.37,,0.0378,0.07,0.06,1.3655,29.59,27.491,26.3393,26.3352,0.7214,83.5004,2.8131e+00,9.9990e+03,,,,,,,
CalCOFI,0701JD,075,,31-Jan-2007 5:17:00 PM,31-Jan-2007 9:17:00 AM,36.79632,-121.84618,067.1 047.7,067.1,047.7,186.000,187.467,8.8323,8.8332,33.9636,33.9623,33.9606,33.9607,1.98454,2.39,,0.0393,0.07,0.06,1.3716,29.77,27.671,26.3361,26.3336,0.7051,83.8392,2.9165e+00,9.9990e+03,,,,,,,
CalCOFI,0701JD,075,,31-Jan-2007 5:17:01 PM,31-Jan-2007 9:17:01 AM,36.79632,-121.84618,067.1 047.7,067.1,047.7,185.000,186.459,8.8472,8.8508,33.9616,33.9603,33.9581,33.9582,1.99151,2.39,,0.0410,0.08,0.06,1.3895,30.30,28.201,26.3322,26.3289,0.7045,83.8512,3.6015e+00,9.9990e+03,,,,,,,
CalCOFI,0701JD,075,,31-Jan-2007 5:17:02 PM,31-Jan-2007 9:17:02 AM,36.79632,-121.84618,067.1 047.7,067.1,047.7,184.000,185.451,8.8489,8.8511,33.9609,33.9596,33.9580,33.9581,1.99442,2.40,,0.0388,0.07,0.06,1.4011,30.64,28.545,26.3314,26.3288,0.7072,83.7938,2.9519e+00,9.9990e+03,,,,,,,
CalCOFI,0701JD,075,,31-Jan-2007 5:17:02 PM,31-Jan-2007 9:17:02 AM,36.79632,-121.84618,067.1 047.7,067.1,047.7,183.000,184.442,8.8548,8.8543,33.9603,33.9590,33.9575,33.9576,1.99662,2.40,,0.0379,0.07,0.06,1.4126,30.97,28.885,26.3300,26.3279,0.7051,83.8388,2.7801e+00,9.9990e+03,,,,,,,
CalCOFI,0701JD,075,,31-Jan-2007 5:17:03 PM,31-Jan-2007 9:17:03 AM,36.79632,-121.84618,067.1 047.7,067.1,047.7,182.000,183.434,8.8420,8.8394,33.9613,33.9600,33.9599,33.9600,2.00078,2.40,,0.0393,0.07,0.06,1.4046,30.74,28.648,26.3328,26.3320,0.7055,83.8312,3.6342e+00,9.9990e+03,,,,,,,
CalCOFI,0701JD,075,,31-Jan-2007 5:17:04 PM,31-Jan-2007 9:17:04 AM,36.79632,-121.84618,067.1 047.7,067.1,047.7,181.000,182.426,8.8409,8.8409,33.9623,33.9610,33.9594,33.9595,2.00508,2.41,,0.0442,0.09,0.06,1.3686,29.68,27.582,26.3337,26.3314,0.7071,83.7970,2.8276e+00,9.9990e+03,,,,,,,
CalCOFI,0701JD,075,,31-Jan-2007 5:17:05 PM,31-Jan-2007 9:17:05 AM,36.79632,-121.84618,067.1 047.7,067.1,047.7,180.000,181.417,8.8486,8.8491,33.9608,33.9595,33.9580,33.9581,2.01044,2.42,,0.0377,0.07,0.06,1.3369,28.75,26.644,26.3313,26.3290,0.7126,83.6826,3.4535e+00,9.9990e+03,,,,,,,
CalCOFI,0701JD,075,,31-Jan-2007 5:17:06 PM,31-Jan-2007 9:17:06 AM,36.79632,-121.84618,067.1 047.7,067.1,047.7,179.000,180.409,8.8635,8.8649,33.9585,33.9572,33.9553,33.9554,2.01559,2.42,,0.0409,0.08,0.06,1.3369,28.75,26.644,26.3271,26.3244,0.7138,83.6569,2.4987e+00,9.9990e+03,,,,,,,
CalCOFI,0701JD,075,,31-Jan-2007 5:17:07 PM,31-Jan-2007 9:17:07 AM,36.79632,-121.84618,067.1 047.7,067.1,047.7,178.000,179.401,8.8712,8.8733,33.9570,33.9557,33.9541,33.9542,2.02071,2.43,,0.0419,0.08,0.06,1.3597,29.42,27.319,26.3247,26.3221,0.7191,83.5450,3.3879e+00,9.9990e+03,,,,,,,
CalCOFI,0701JD,075,,31-Jan-2007 5:17:08 PM,31-Jan-2007 9:17:08 AM,36.79632,-121.84618,067.1 047.7,067.1,047.7,177.000,178.392,8.8684,8.8701,33.9576,33.9563,33.9548,33.9549,2.02732,2.44,,0.0423,0.08,0.06,1.3359,28.72,26.614,26.3256,26.3231,0.7146,83.6405,3.1339e+00,9.9990e+03,,,,,,,
CalCOFI,0701JD,075,,31-Jan-2007 5:17:09 PM,31-Jan-2007 9:17:09 AM,36.79632,-121.84618,067.1 047.7,067.1,047.7,176.000,177.384,8.8756,8.8794,33.9566,33.9553,33.9532,33.9533,2.04105,2.45,,0.0437,0.09,0.06,1.3571,29.35,27.242,26.3237,26.3204,0.7083,83.7709,2.9939e+00,9.9990e+03,,,,,,,
CalCOFI,0701JD,075,,31-Jan-2007 5:17:10 PM,31-Jan-2007 9:17:10 AM,36.79632,-121.84618,067.1 047.7,067.1,047.7,175.000,176.376,8.8795,8.8758,33.9557,33.9544,33.9538,33.9539,2.06408,2.48,,0.0408,0.08,0.06,1.3811,30.05,27.953,26.3223,26.3214,0.7144,83.6447,3.4857e+00,9.9990e+03,,,,,,,
CalCOFI,0701JD,075,,31-Jan-2007 5:17:11 PM,31-Jan-2007 9:17:11 AM,36.79632,-121.84618,067.1 047.7,067.1,047.7,174.000,175.367,8.9156,8.9154,33.9517,33.9504,33.9477,33.9478,2.09403,2.52,,0.0407,0.08,0.06,1.3613,29.47,27.366,26.3136,26.3105,0.7182,83.5646,2.8874e+00,9.9990e+03,,,,,,,
CalCOFI,0701JD,075,,31-Jan-2007 5:17:12 PM,31-Jan-2007 9:17:12 AM,36.79632,-121.84618,067.1 047.7,067.1,047.7,173.000,174.359,8.9616,8.9712,33.9465,33.9452,33.9411,33.9412,2.12739,2.56,,0.0426,0.08,0.06,1.4074,30.82,28.731,26.3022,26.2964,0.7253,83.4162,3.3853e+00,9.9990e+03,,,,,,,
CalCOFI,0701JD,075,,31-Jan-2007 5:17:13 PM,31-Jan-2007 9:17:13 AM,36.79632,-121.84618,067.1 047.7,067.1,047.7,172.000,173.351,9.0573,9.0771,33.9343,33.9330,33.9259,33.9260,2.15308,2.59,,0.0433,0.08,0.06,1.3676,29.65,27.553,26.2774,26.2677,0.7309,83.3001,3.2910e+00,9.9990e+03,,,,,,,
CalCOFI,0701JD,075,,31-Jan-2007 5:17:14 PM,31-Jan-2007 9:17:14 AM,36.79632,-121.84618,067.1 047.7,067.1,047.7,171.000,172.343,9.1185,9.1291,33.9240,33.9227,33.9191,33.9192,2.17441,2.62,,0.0480,0.10,0.06,1.3539,29.25,27.147,26.2596,26.2541,0.7423,83.0633,2.4308e+00,9.9990e+03,,,,,,,
CalCOFI,0701JD,075,,31-Jan-2007 5:17:15 PM,31-Jan-2007 9:17:15 AM,36.79632,-121.84618,067.1 047.7,067.1,047.7,170.000,171.334,9.1239,9.1251,33.9232,33.9219,33.9210,33.9211,2.19103,2.64,,0.0480,0.10,0.06,1.3579,29.37,27.266,26.2581,26.2562,0.7416,83.0763,2.6879e+00,9.9990e+03,,,,,,,
CalCOFI,0701JD,075,,31-Jan-2007 5:17:16 PM,31-Jan-2007 9:17:16 AM,36.79632,-121.84618,067.1 047.7,067.1,047.7,169.000,170.326,9.1487,9.1619,33.9204,33.9191,33.9156,33.9157,2.20264,2.65,,0.0514,0.11,0.06,1.3209,28.28,26.170,26.2520,26.2461,0.7469,82.9666,2.9166e+00,9.9990e+03,,,,,,,
CalCOFI,0701JD,075,,31-Jan-2007 5:17:17 PM,31-Jan-2007 9:17:17 AM,36.79632,-121.84618,067.1 047.7,067.1,047.7,168.000,169.318,9.1475,9.1434,33.9195,33.9182,33.9183,33.9184,2.21103,2.66,,0.0524,0.11,0.06,1.3079,27.90,25.785,26.2515,26.2512,0.7445,83.0163,3.1937e+00,9.9990e+03,,,,,,,
CalCOFI,0701JD,075,,31-Jan-2007 5:17:18 PM,31-Jan-2007 9:17:18 AM,36.79632,-121.84618,067.1 047.7,067.1,047.7,167.000,168.310,9.1420,9.1440,33.9205,33.9192,33.9176,33.9177,2.21182,2.66,,0.0542,0.12,0.06,1.3052,27.82,25.705,26.2531,26.2505,0.7412,83.0855,3.9106e+00,9.9990e+03,,,,,,,
CalCOFI,0701JD,075,,31-Jan-2007 5:17:19 PM,31-Jan-2007 9:17:19 AM,36.79632,-121.84618,067.1 047.7,067.1,047.7,166.000,167.301,9.1344,9.1232,33.9204,33.9191,33.9206,33.9207,2.20987,2.66,,0.0509,0.11,0.06,1.3302,28.56,26.445,26.2542,26.2562,0.7456,82.9941,4.0691e+00,9.9990e+03,,,,,,,
CalCOFI,0701JD,075,,31-Jan-2007 5:17:20 PM,31-Jan-2007 9:17:20 AM,36.79632,-121.84618,067.1 047.7,067.1,047.7,165.000,166.293,9.0886,9.0796,33.9270,33.9257,33.9260,33.9261,2.20637,2.66,,0.0533,0.11,0.06,1.3074,27.89,25.770,26.2667,26.2673,0.7402,83.1060,3.3677e+00,9.9990e+03,,,,,,,
CalCOFI,0701JD,075,,31-Jan-2007 5:17:21 PM,31-Jan-2007 9:17:21 AM,36.79632,-121.84618,067.1 047.7,067.1,047.7,164.000,165.285,9.1028,9.1036,33.9238,33.9225,33.9222,33.9223,2.19427,2.64,,0.0480,0.10,0.06,1.3033,27.77,25.649,26.2619,26.2605,0.7440,83.0274,3.5641e+00,9.9990e+03,,,,,,,
CalCOFI,0701JD,075,,31-Jan-2007 5:17:22 PM,31-Jan-2007 9:17:22 AM,36.79632,-121.84618,067.1 047.7,067.1,047.7,163.000,164.277,9.0726,9.0700,33.9277,33.9264,33.9269,33.9270,2.17500,2.62,,0.0515,0.11,0.06,1.3119,28.02,25.903,26.2697,26.2695,0.7355,83.2043,3.1555e+00,9.9990e+03,,,,,,,
CalCOFI,0701JD,075,,31-Jan-2007 5:17:23 PM,31-Jan-2007 9:17:23 AM,36.79632,-121.84618,067.1 047.7,067.1,047.7,162.000,163.268,9.0413,9.0408,33.9320,33.9307,33.9304,33.9305,2.16198,2.60,,0.0511,0.11,0.06,1.3296,28.54,26.428,26.2780,26.2769,0.7292,83.3344,3.5298e+00,9.9990e+03,,,,,,,
CalCOFI,0701JD,075,,31-Jan-2007 5:17:24 PM,31-Jan-2007 9:17:24 AM,36.79632,-121.84618,067.1 047.7,067.1,047.7,161.000,162.260,8.9859,8.9684,33.9371,33.9358,33.9405,33.9406,2.17246,2.61,,0.0458,0.09,0.06,1.3417,28.89,26.786,26.2908,26.2962,0.7296,83.3259,3.8420e+00,9.9990e+03,,,,,,,
CalCOFI,0701JD,075,,31-Jan-2007 5:17:25 PM,31-Jan-2007 9:17:25 AM,36.79632,-121.84618,067.1 047.7,067.1,047.7,160.000,161.252,8.9621,8.9649,33.9430,33.9417,33.9399,33.9400,2.19215,2.64,,0.0426,0.08,0.06,1.3360,28.73,26.617,26.2992,26.2963,0.7360,83.1939,3.9582e+00,9.9990e+03,,,,,,,
CalCOFI,0701JD,075,,31-Jan-2007 5:17:26 PM,31-Jan-2007 9:17:26 AM,36.79632,-121.84618,067.1 047.7,067.1,047.7,159.000,160.244,9.0141,9.0165,33.9383,33.9370,33.9329,33.9330,2.21036,2.66,,0.0429,0.08,0.06,1.3160,28.14,26.025,26.2872,26.2826,0.7365,83.1831,3.8421e+00,9.9990e+03,,,,,,,
CalCOFI,0701JD,075,,31-Jan-2007 5:17:26 PM,31-Jan-2007 9:17:26 AM,36.79632,-121.84618,067.1 047.7,067.1,047.7,158.000,159.236,9.1006,9.1064,33.9273,33.9260,33.9212,33.9213,2.23228,2.69,,0.0439,0.09,0.06,1.3314,28.59,26.481,26.2649,26.2591,0.7416,83.0763,3.6303e+00,9.9990e+03,,,,,,,
CalCOFI,0701JD,075,,31-Jan-2007 5:17:27 PM,31-Jan-2007 9:17:27 AM,36.79632,-121.84618,067.1 047.7,067.1,047.7,157.000,158.227,9.1622,9.1741,33.9165,33.9152,33.9115,33.9116,2.25494,2.71,,0.0514,0.11,0.06,1.3356,28.71,26.605,26.2466,26.2408,0.7533,82.8352,3.4913e+00,9.9990e+03,,,,,,,
CalCOFI,0701JD,075,,31-Jan-2007 5:17:28 PM,31-Jan-2007 9:17:28 AM,36.79632,-121.84618,067.1 047.7,067.1,047.7,156.000,157.219,9.2004,9.2092,33.9112,33.9099,33.9070,33.9071,2.27913,2.74,,0.0527,0.11,0.06,1.3226,28.33,26.220,26.2362,26.2316,0.7593,82.7095,3.4708e+00,9.9990e+03,,,,,,,
CalCOFI,0701JD,075,,31-Jan-2007 5:17:30 PM,31-Jan-2007 9:17:30 AM,36.79632,-121.84618,067.1 047.7,067.1,047.7,155.000,156.211,9.2279,9.2292,33.9065,33.9052,33.9042,33.9043,2.29998,2.77,,0.0561,0.12,0.06,1.3076,27.89,25.776,26.2282,26.2262,0.7700,82.4888,3.2955e+00,9.9990e+03,,,,,,,
CalCOFI,0701JD,075,,31-Jan-2007 5:17:31 PM,31-Jan-2007 9:17:31 AM,36.79632,-121.84618,067.1 047.7,067.1,047.7,154.000,155.203,9.2306,9.2322,33.9058,33.9045,33.9039,33.9040,2.31465,2.79,,0.0631,0.14,0.06,1.3053,27.82,25.708,26.2272,26.2254,0.7647,82.5977,2.5835e+00,9.9990e+03,,,,,,,
CalCOFI,0701JD,075,,31-Jan-2007 5:17:32 PM,31-Jan-2007 9:17:32 AM,36.79632,-121.84618,067.1 047.7,067.1,047.7,153.000,154.195,9.2342,9.2341,33.9052,33.9039,33.9032,33.9033,2.32304,2.80,,0.0568,0.12,0.06,1.2931,27.47,25.347,26.2261,26.2246,0.7592,82.7121,2.8810e+00,9.9990e+03,,,,,,,
CalCOFI,0701JD,075,,31-Jan-2007 5:17:34 PM,31-Jan-2007 9:17:34 AM,36.79632,-121.84618,067.1 047.7,067.1,047.7,152.000,153.186,9.2339,9.2344,33.9054,33.9041,33.9033,33.9034,2.32830,2.80,,0.0581,0.13,0.06,1.2882,27.32,25.202,26.2263,26.2246,0.7661,82.5702,3.6839e+00,9.9990e+03,,,,,,,
CalCOFI,0701JD,075,,31-Jan-2007 5:17:35 PM,31-Jan-2007 9:17:35 AM,36.79632,-121.84618,067.1 047.7,067.1,047.7,151.000,152.178,9.2347,9.2351,33.9051,33.9038,33.9028,33.9029,2.33493,2.81,,0.0621,0.14,0.06,1.2669,26.70,24.571,26.2259,26.2241,0.7718,82.4524,2.9148e+00,9.9990e+03,,,,,,,
CalCOFI,0701JD,075,,31-Jan-2007 5:17:36 PM,31-Jan-2007 9:17:36 AM,36.79632,-121.84618,067.1 047.7,067.1,047.7,150.000,151.170,9.2388,9.2384,33.9042,33.9029,33.9021,33.9022,2.33816,2.82,,0.0569,0.12,0.06,1.2806,27.10,24.977,26.2245,26.2230,0.7684,82.5213,3.0730e+00,9.9990e+03,,,,,,,
CalCOFI,0701JD,075,,31-Jan-2007 5:17:37 PM,31-Jan-2007 9:17:37 AM,36.79632,-121.84618,067.1 047.7,067.1,047.7,149.000,150.162,9.2326,9.2331,33.9044,33.9031,33.9028,33.9029,2.34094,2.82,,0.0611,0.14,0.06,1.2605,26.51,24.381,26.2257,26.2243,0.7750,82.3870,3.0580e+00,9.9990e+03,149,9.47 ,33.874,,.08,.09,23.8
CalCOFI,0701JD,075,,31-Jan-2007 5:17:57 PM,31-Jan-2007 9:17:57 AM,36.79632,-121.84617,067.1 047.7,067.1,047.7,148.000,149.154,9.2591,9.2565,33.9012,33.8999,33.8994,33.8995,2.37597,2.86,,0.0621,0.14,0.06,1.2849,27.23,25.104,26.2189,26.2179,0.7808,82.2674,3.0049e+00,9.9990e+03,,,,,,,
CalCOFI,0701JD,075,,31-Jan-2007 5:19:59 PM,31-Jan-2007 9:19:59 AM,36.79632,-121.84599,067.1 047.7,067.1,047.7,147.000,148.146,9.4711,9.4714,33.8748,33.8735,33.8733,33.8734,2.58242,3.11,,0.0740,0.17,0.07,1.2124,25.10,22.957,26.1639,26.1627,0.7936,82.0042,3.4145e+00,9.9990e+03,,,,,,,
CalCOFI,0701JD,075,,31-Jan-2007 5:19:55 PM,31-Jan-2007 9:19:55 AM,36.79632,-121.84600,067.1 047.7,067.1,047.7,146.000,147.137,9.4619,9.4628,33.8756,33.8743,33.8743,33.8744,2.57678,3.11,,0.0724,0.17,0.07,1.2192,25.30,23.159,26.1660,26.1649,0.7954,81.9686,3.5362e+00,9.9990e+03,,,,,,,
CalCOFI,0701JD,075,,31-Jan-2007 5:19:56 PM,31-Jan-2007 9:19:56 AM,36.79632,-121.84600,067.1 047.7,067.1,047.7,145.000,146.129,9.4601,9.4618,33.8760,33.8747,33.8743,33.8744,2.58154,3.11,,0.0712,0.16,0.07,1.2230,25.41,23.271,26.1666,26.1650,0.8072,81.7249,3.2761e+00,9.9990e+03,,,,,,,
CalCOFI,0701JD,075,,31-Jan-2007 5:19:56 PM,31-Jan-2007 9:19:56 AM,36.79632,-121.84600,067.1 047.7,067.1,047.7,144.000,145.121,9.4659,9.4691,33.8756,33.8743,33.8733,33.8734,2.58881,3.12,,0.0760,0.18,0.07,1.1886,24.40,22.252,26.1653,26.1630,0.8121,81.6259,3.4339e+00,9.9990e+03,,,,,,,
CalCOFI,0701JD,075,,31-Jan-2007 5:19:57 PM,31-Jan-2007 9:19:57 AM,36.79632,-121.84600,067.1 047.7,067.1,047.7,143.000,144.113,9.4877,9.4913,33.8733,33.8720,33.8707,33.8708,2.59547,3.13,,0.0776,0.18,0.07,1.2180,25.26,23.123,26.1599,26.1573,0.8126,81.6155,3.3838e+00,9.9990e+03,,,,,,,
CalCOFI,0701JD,075,,31-Jan-2007 5:19:58 PM,31-Jan-2007 9:19:58 AM,36.79632,-121.84600,067.1 047.7,067.1,047.7,142.000,143.105,9.5031,9.5045,33.8710,33.8697,33.8692,33.8693,2.60301,3.14,,0.0773,0.18,0.07,1.2445,26.04,23.908,26.1556,26.1539,0.8135,81.5970,3.2576e+00,9.9990e+03,,,,,,,
CalCOFI,0701JD,075,,31-Jan-2007 5:19:59 PM,31-Jan-2007 9:19:59 AM,36.79632,-121.84600,067.1 047.7,067.1,047.7,141.000,142.097,9.5131,9.5181,33.8702,33.8689,33.8674,33.8675,2.61714,3.16,,0.0769,0.18,0.07,1.2350,25.76,23.626,26.1533,26.1503,0.8051,81.7681,3.4218e+00,9.9990e+03,,,,,,,
CalCOFI,0701JD,075,,31-Jan-2007 5:20:00 PM,31-Jan-2007 9:20:00 AM,36.79632,-121.84600,067.1 047.7,067.1,047.7,140.000,141.089,9.5275,9.5288,33.8673,33.8660,33.8660,33.8661,2.65114,3.20,,0.0768,0.18,0.07,1.2115,25.07,22.931,26.1487,26.1475,0.7987,81.8999,3.1239e+00,9.9990e+03,,,,,,,
CalCOFI,0701JD,075,,31-Jan-2007 5:20:01 PM,31-Jan-2007 9:20:01 AM,36.79632,-121.84600,067.1 047.7,067.1,047.7,139.000,140.080,9.5164,9.5246,33.8696,33.8683,33.8667,33.8668,2.70904,3.27,,0.0784,0.19,0.07,1.2113,25.06,22.925,26.1522,26.1487,0.8003,81.8666,3.4653e+00,9.9990e+03,,,,,,,
CalCOFI,0701JD,075,,31-Jan-2007 5:20:02 PM,31-Jan-2007 9:20:02 AM,36.79632,-121.84600,067.1 047.7,067.1,047.7,138.000,139.072,9.6824,9.7128,33.8516,33.8503,33.8419,33.8420,2.78273,3.36,,0.0829,0.20,0.07,1.2136,25.13,22.993,26.1109,26.0983,0.7965,81.9456,3.0400e+00,9.9990e+03,,,,,,,
CalCOFI,0701JD,075,,31-Jan-2007 5:20:04 PM,31-Jan-2007 9:20:04 AM,36.79632,-121.84600,067.1 047.7,067.1,047.7,137.000,138.064,9.8286,9.8696,33.8339,33.8326,33.8238,33.8239,2.86707,3.46,,0.0860,0.21,0.08,1.1794,24.13,21.980,26.0728,26.0580,0.7904,82.0700,3.0711e+00,9.9990e+03,,,,,,,
CalCOFI,0701JD,075,,31-Jan-2007 5:20:05 PM,31-Jan-2007 9:20:05 AM,36.79632,-121.84600,067.1 047.7,067.1,047.7,136.000,137.056,9.9770,9.9825,33.8126,33.8113,33.8102,33.8103,2.95914,3.57,,0.0948,0.23,0.08,1.1907,24.46,22.315,26.0313,26.0285,0.7856,82.1671,3.8687e+00,9.9990e+03,,,,,,,
CalCOFI,0701JD,075,,31-Jan-2007 5:20:06 PM,31-Jan-2007 9:20:06 AM,36.79632,-121.84600,067.1 047.7,067.1,047.7,135.000,136.048,10.0221,10.0453,33.8099,33.8086,33.8023,33.8024,3.05549,3.69,,0.1096,0.28,0.10,1.1924,24.51,22.365,26.0215,26.0117,0.7834,82.2126,3.4417e+00,9.9990e+03,,,,,,,
CalCOFI,0701JD,075,,31-Jan-2007 5:20:07 PM,31-Jan-2007 9:20:07 AM,36.79632,-121.84600,067.1 047.7,067.1,047.7,134.000,135.040,10.1165,10.1164,33.7945,33.7932,33.7921,33.7922,3.13212,3.78,,0.0969,0.24,0.09,1.1703,23.86,21.711,25.9935,25.9917,0.7883,82.1122,2.3690e+00,9.9990e+03,,,,,,,
CalCOFI,0701JD,075,,31-Jan-2007 5:20:08 PM,31-Jan-2007 9:20:08 AM,36.79632,-121.84600,067.1 047.7,067.1,047.7,133.000,134.032,10.1770,10.1587,33.7897,33.7884,33.7868,33.7869,3.20229,3.87,,0.0936,0.23,0.08,1.1612,23.59,21.441,25.9795,25.9803,0.7965,81.9445,3.4593e+00,9.9990e+03,,,,,,,
CalCOFI,0701JD,075,,31-Jan-2007 5:20:08 PM,31-Jan-2007 9:20:08 AM,36.79632,-121.84600,067.1 047.7,067.1,047.7,132.000,133.024,10.3159,10.3250,33.7695,33.7682,33.7649,33.7650,3.25767,3.94,,0.0993,0.25,0.09,1.1608,23.58,21.429,25.9400,25.9348,0.8021,81.8308,2.5812e+00,9.9990e+03,,,,,,,
CalCOFI,0701JD,075,,31-Jan-2007 5:20:09 PM,31-Jan-2007 9:20:09 AM,36.79632,-121.84600,067.1 047.7,067.1,047.7,131.000,132.016,10.4224,10.4249,33.7591,33.7578,33.7548,33.7549,3.30810,4.00,,0.1037,0.26,0.09,1.1578,23.49,21.340,25.9135,25.9097,0.7977,81.9195,2.9890e+00,9.9990e+03,,,,,,,
CalCOFI,0701JD,075,,31-Jan-2007 5:20:10 PM,31-Jan-2007 9:20:10 AM,36.79632,-121.84600,067.1 047.7,067.1,047.7,130.000,131.008,10.5713,10.5684,33.7434,33.7421,33.7375,33.7376,3.35309,4.05,,0.1132,0.29,0.11,1.1324,22.75,20.588,25.8754,25.8713,0.7871,82.1366,3.0165e+00,9.9990e+03,,,,,,,
CalCOFI,0701JD,075,,31-Jan-2007 5:20:11 PM,31-Jan-2007 9:20:11 AM,36.79632,-121.84600,067.1 047.7,067.1,047.7,129.000,130.000,10.6346,10.6447,33.7311,33.7298,33.7291,33.7292,3.41910,4.13,,0.1166,0.30,0.11,1.0879,21.44,19.271,25.8548,25.8515,0.7649,82.5941,3.0080e+00,9.9990e+03,,,,,,,
CalCOFI,0701JD,075,,31-Jan-2007 5:20:12 PM,31-Jan-2007 9:20:12 AM,36.79640,-121.84600,067.1 047.7,067.1,047.7,128.000,128.991,10.6353,10.6666,33.7322,33.7309,33.7263,33.7264,3.51080,4.25,,0.1298,0.34,0.13,1.0671,20.83,18.655,25.8555,25.8454,0.7612,82.6703,3.6811e+00,9.9990e+03,,,,,,,
CalCOFI,0701JD,075,,31-Jan-2007 5:20:13 PM,31-Jan-2007 9:20:13 AM,36.79650,-121.84600,067.1 047.7,067.1,047.7,127.000,127.983,10.7840,10.8105,33.7147,33.7134,33.7068,33.7069,3.57126,4.32,,0.1292,0.34,0.13,1.0721,20.98,18.803,25.8158,25.8049,0.7511,82.8796,3.2402e+00,9.9990e+03,,,,,,,
CalCOFI,0701JD,075,,31-Jan-2007 5:20:14 PM,31-Jan-2007 9:20:14 AM,36.79650,-121.84600,067.1 047.7,067.1,047.7,126.000,126.975,10.8378,10.8513,33.7054,33.7041,33.7025,33.7026,3.63020,4.39,,0.1358,0.36,0.14,1.0343,19.87,17.683,25.7990,25.7943,0.7306,83.3065,3.2554e+00,9.9990e+03,,,,,,,
CalCOFI,0701JD,075,,31-Jan-2007 5:20:15 PM,31-Jan-2007 9:20:15 AM,36.79650,-121.84600,067.1 047.7,067.1,047.7,125.000,125.967,10.8501,10.8542,33.7033,33.7020,33.7019,33.7020,3.69857,4.47,,0.1341,0.35,0.14,1.0030,18.95,16.757,25.7952,25.7933,0.7288,83.3440,3.9185e+00,9.9990e+03,,,,,,,
CalCOFI,0701JD,075,,31-Jan-2007 5:20:16 PM,31-Jan-2007 9:20:16 AM,36.79650,-121.84600,067.1 047.7,067.1,047.7,124.000,124.959,10.9322,10.9387,33.6958,33.6945,33.6907,33.6908,3.77154,4.56,,0.1321,0.35,0.14,0.9753,18.14,15.936,25.7747,25.7696,0.7267,83.3881,3.3492e+00,9.9990e+03,,,,,,,
CalCOFI,0701JD,075,,31-Jan-2007 5:20:17 PM,31-Jan-2007 9:20:17 AM,36.79650,-121.84600,067.1 047.7,067.1,047.7,123.000,123.951,11.0174,11.0542,33.6856,33.6843,33.6759,33.6760,3.84264,4.65,,0.1370,0.36,0.14,0.9475,17.32,15.113,25.7515,25.7375,0.7107,83.7206,3.0000e+00,9.9990e+03,,,,,,,
CalCOFI,0701JD,075,,31-Jan-2007 5:20:18 PM,31-Jan-2007 9:20:18 AM,36.79650,-121.84600,067.1 047.7,067.1,047.7,122.000,122.943,11.2033,11.2150,33.6613,33.6600,33.6564,33.6565,3.89730,4.72,,0.1490,0.40,0.17,0.9674,17.90,15.703,25.6993,25.6933,0.6935,84.0833,3.6022e+00,9.9990e+03,,,,,,,
CalCOFI,0701JD,075,,31-Jan-2007 5:20:19 PM,31-Jan-2007 9:20:19 AM,36.79650,-121.84600,067.1 047.7,067.1,047.7,121.000,121.935,11.2592,11.2683,33.6520,33.6507,33.6504,33.6505,3.95416,4.79,,0.1465,0.39,0.16,0.9859,18.45,16.250,25.6820,25.6790,0.6828,84.3071,3.2571e+00,9.9990e+03,,,,,,,
CalCOFI,0701JD,075,,31-Jan-2007 5:20:20 PM,31-Jan-2007 9:20:20 AM,36.79650,-121.84600,067.1 047.7,067.1,047.7,120.000,120.927,11.2741,11.2795,33.6501,33.6488,33.6489,33.6490,4.00202,4.84,,0.1529,0.41,0.17,0.9559,17.57,15.362,25.6777,25.6758,0.6691,84.5963,3.7516e+00,9.9990e+03,,,,,,,
CalCOFI,0701JD,075,,31-Jan-2007 5:20:21 PM,31-Jan-2007 9:20:21 AM,36.79650,-121.84600,067.1 047.7,067.1,047.7,119.000,119.919,11.3380,11.3401,33.6433,33.6420,33.6408,33.6409,4.03141,4.88,,0.1574,0.42,0.18,0.9349,16.95,14.740,25.6608,25.6585,0.6643,84.6982,3.1928e+00,9.9990e+03,,,,,,,